Location: Sternwarte_Laufen
(47.9344°N, 12.9346°E)
Time: 09:32:33
(UTC+02:00)

ISS - Pass Details

Date: 25 May 2018
Orbit: 402 x 407 km, 51.6° (Epoch: 27 May)

Event Time Altitude Azimuth Distance (km) Brightness Sun altitude
Rises 23:35:50 0° 281° (W) 2,321 0.5 -18.1°
Reaches altitude 10° 23:38:00 10° 289° (WNW) 1,460 -0.5 -18.3°
Maximum altitude 23:41:07 41° 1° (N) 601 -2.5 -18.5°
Drops below altitude 10° 23:44:15 10° 74° (ENE) 1,459 -1.1 -18.6°
Enters shadow 23:44:37 - 76° (ENE) 1,606 -0.9 -18.7°
